| time (UTC) | temp C | wind direction | speed KPH | gust KPH | rain 1hr cm | rain 24hr cm | rain mn cm | humidity % | barometer mb |
| 20260505205639 | 8 | 355 | 12.9 | 19.3 | 0.00 | 0.00 | 0.00 | 79 | 1011.1 |
| 20260505205139 | 8 | 5 | 12.9 | 20.9 | 0.00 | 0.00 | 0.00 | 79 | 1011.1 |
| 20260505204635 | 9 | 9 | 12.9 | 20.9 | 0.00 | 0.00 | 0.00 | 78 | 1011.1 |
| 20260505204145 | 9 | 344 | 14.5 | 20.9 | 0.00 | 0.00 | 0.00 | 78 | 1011.0 |
| 20260505203632 | 9 | 355 | 16.1 | 22.5 | 0.00 | 0.00 | 0.00 | 78 | 1011.0 |
| 20260505203133 | 9 | 350 | 14.5 | 22.5 | 0.00 | 0.00 | 0.00 | 78 | 1011.0 |
| 20260505202630 | 9 | 0 | 16.1 | 24.1 | 0.00 | 0.00 | 0.00 | 77 | 1011.0 |
| 20260505202129 | 10 | 0 | 16.1 | 24.1 | 0.00 | 0.00 | 0.00 | 77 | 1011.0 |
| 20260505201631 | 10 | 0 | 16.1 | 22.5 | 0.00 | 0.00 | 0.00 | 77 | 1011.0 |
| 20260505201129 | 10 | 18 | 16.1 | 24.1 | 0.00 | 0.00 | 0.00 | 76 | 1010.9 |
| 20260505200630 | 10 | 339 | 17.7 | 24.1 | 0.00 | 0.00 | 0.00 | 76 | 1010.9 |
| 20260505200131 | 10 | 12 | 16.1 | 24.1 | 0.00 | 0.00 | 0.00 | 76 | 1010.9 |
| 20260505195857 | 10 | 11 | 16.1 | 22.5 | 0.00 | 0.00 | 0.00 | 75 | 1010.9 |
| 20260505195130 | 10 | 5 | 16.1 | 24.1 | 0.00 | 0.00 | 0.00 | 74 | 1010.9 |
| 20260505194630 | 10 | 10 | 17.7 | 24.1 | 0.00 | 0.00 | 0.00 | 74 | 1010.9 |
| 20260505194129 | 10 | 350 | 17.7 | 24.1 | 0.00 | 0.00 | 0.00 | 73 | 1010.9 |
| 20260505193630 | 10 | 5 | 16.1 | 24.1 | 0.00 | 0.00 | 0.00 | 73 | 1010.9 |
| 20260505193130 | 10 | 0 | 16.1 | 22.5 | 0.00 | 0.00 | 0.00 | 74 | 1010.9 |
| 20260505192630 | 10 | 0 | 16.1 | 22.5 | 0.00 | 0.00 | 0.00 | 74 | 1010.6 |
| 20260505192132 | 10 | 355 | 16.1 | 24.1 | 0.00 | 0.00 | 0.00 | 74 | 1010.6 |
| 20260505191632 | 10 | 355 | 16.1 | 24.1 | 0.00 | 0.00 | 0.00 | 73 | 1010.6 |
| 20260505191131 | 10 | 0 | 14.5 | 20.9 | 0.00 | 0.00 | 0.00 | 73 | 1010.5 |
| 20260505190631 | 10 | 349 | 16.1 | 25.7 | 0.00 | 0.00 | 0.00 | 73 | 1010.5 |
| 20260505190132 | 10 | 355 | 16.1 | 25.7 | 0.00 | 0.00 | 0.00 | 73 | 1010.5 |
| 20260505185633 | 10 | 351 | 17.7 | 25.7 | 0.00 | 0.00 | 0.00 | 74 | 1010.4 |
| 20260505185132 | 11 | 355 | 17.7 | 25.7 | 0.00 | 0.00 | 0.00 | 73 | 1010.4 |
| 20260505184631 | 11 | 18 | 14.5 | 20.9 | 0.00 | 0.00 | 0.00 | 73 | 1010.4 |
| 20260505184131 | 11 | 346 | 14.5 | 25.7 | 0.00 | 0.00 | 0.00 | 72 | 1010.4 |
| 20260505183631 | 11 | 350 | 16.1 | 25.7 | 0.00 | 0.00 | 0.00 | 72 | 1010.4 |
| 20260505183133 | 11 | 342 | 16.1 | 25.7 | 0.00 | 0.00 | 0.00 | 72 | 1010.4 |
| 20260505182631 | 11 | 347 | 16.1 | 25.7 | 0.00 | 0.00 | 0.00 | 71 | 1010.4 |
| 20260505182131 | 11 | 337 | 16.1 | 24.1 | 0.00 | 0.00 | 0.00 | 70 | 1010.4 |
| 20260505181631 | 12 | 344 | 17.7 | 27.4 | 0.00 | 0.00 | 0.00 | 70 | 1010.4 |
| 20260505181400 | 12 | 339 | 16.1 | 27.4 | 0.00 | 0.00 | 0.00 | 70 | 1010.4 |
| 20260505180631 | 12 | 350 | 16.1 | 25.7 | 0.00 | 0.00 | 0.00 | 70 | 1010.4 |
| 20260505180132 | 12 | 331 | 17.7 | 25.7 | 0.00 | 0.00 | 0.00 | 69 | 1010.4 |
| 20260505175632 | 12 | 355 | 16.1 | 24.1 | 0.00 | 0.00 | 0.00 | 69 | 1010.4 |
| 20260505175132 | 12 | 334 | 16.1 | 24.1 | 0.00 | 0.00 | 0.00 | 70 | 1010.4 |
| 20260505174631 | 12 | 346 | 17.7 | 30.6 | 0.00 | 0.00 | 0.00 | 71 | 1010.4 |
| 20260505174131 | 12 | 329 | 17.7 | 30.6 | 0.00 | 0.00 | 0.00 | 71 | 1010.4 |
| 20260505173634 | 12 | 342 | 19.3 | 30.6 | 0.00 | 0.00 | 0.00 | 70 | 1010.4 |
| 20260505173131 | 12 | 355 | 16.1 | 30.6 | 0.00 | 0.00 | 0.00 | 70 | 1010.4 |
| 20260505172632 | 13 | 350 | 17.7 | 27.4 | 0.00 | 0.00 | 0.00 | 69 | 1010.4 |
| 20260505172131 | 13 | 341 | 19.3 | 33.8 | 0.00 | 0.00 | 0.00 | 69 | 1010.4 |
| 20260505171631 | 13 | 284 | 19.3 | 33.8 | 0.00 | 0.00 | 0.00 | 68 | 1010.4 |
| 20260505171131 | 13 | 336 | 17.7 | 29.0 | 0.00 | 0.00 | 0.00 | 69 | 1010.4 |
| 20260505170632 | 13 | 299 | 17.7 | 27.4 | 0.00 | 0.00 | 0.00 | 69 | 1010.4 |
| 20260505170129 | 13 | 355 | 17.7 | 27.4 | 0.00 | 0.00 | 0.00 | 69 | 1010.4 |
| 20260505165630 | 13 | 331 | 17.7 | 30.6 | 0.00 | 0.00 | 0.00 | 69 | 1010.5 |
| 20260505165130 | 13 | 332 | 20.9 | 33.8 | 0.00 | 0.00 | 0.00 | 70 | 1010.5 |
| 20260505164630 | 13 | 349 | 19.3 | 33.8 | 0.00 | 0.00 | 0.00 | 68 | 1010.5 |
| 20260505163629 | 13 | 336 | 17.7 | 30.6 | 0.00 | 0.00 | 0.00 | 68 | 1010.4 |
| 20260505163129 | 13 | 329 | 19.3 | 30.6 | 0.00 | 0.00 | 0.00 | 68 | 1010.4 |
| 20260505162852 | 13 | 306 | 17.7 | 29.0 | 0.00 | 0.00 | 0.00 | 67 | 1010.4 |
| 20260505162129 | 13 | 326 | 16.1 | 29.0 | 0.00 | 0.00 | 0.00 | 67 | 1010.4 |
| 20260505161629 | 13 | 339 | 16.1 | 29.0 | 0.00 | 0.00 | 0.00 | 67 | 1010.4 |
| 20260505161129 | 13 | 331 | 17.7 | 27.4 | 0.00 | 0.00 | 0.00 | 67 | 1010.5 |
| 20260505160630 | 13 | 339 | 17.7 | 29.0 | 0.00 | 0.00 | 0.00 | 67 | 1010.5 |
| 20260505160129 | 13 | 342 | 17.7 | 30.6 | 0.00 | 0.00 | 0.00 | 66 | 1010.5 |
| 20260505153130 | 14 | 339 | 19.3 | 32.2 | 0.00 | 0.00 | 0.00 | 65 | 1010.7 |
| 20260505152628 | 14 | 328 | 17.7 | 32.2 | 0.00 | 0.00 | 0.00 | 66 | 1010.9 |
| 20260505152129 | 14 | 315 | 17.7 | 30.6 | 0.00 | 0.00 | 0.00 | 65 | 1010.9 |
| 20260505151628 | 14 | 16 | 17.7 | 32.2 | 0.00 | 0.00 | 0.00 | 65 | 1010.9 |
| 20260505151129 | 14 | 323 | 17.7 | 32.2 | 0.00 | 0.00 | 0.00 | 66 | 1010.9 |
| 20260505150629 | 14 | 313 | 17.7 | 30.6 | 0.00 | 0.00 | 0.00 | 67 | 1010.9 |
| 20260505150129 | 14 | 325 | 17.7 | 29.0 | 0.00 | 0.00 | 0.00 | 67 | 1010.9 |
| 20260505140115 | 14 | 323 | 16.1 | 27.4 | 0.00 | 0.00 | 0.00 | 70 | 1010.9 |
| 20260505124603 | 12 | 302 | 19.3 | 29.0 | 0.00 | 0.00 | 0.00 | 76 | 1011.3 |
| 20260505124102 | 12 | 306 | 17.7 | 29.0 | 0.00 | 0.00 | 0.00 | 75 | 1011.4 |
| 20260505123603 | 13 | 290 | 17.7 | 29.0 | 0.00 | 0.00 | 0.00 | 74 | 1011.4 |
| 20260505123102 | 13 | 302 | 19.3 | 30.6 | 0.00 | 0.00 | 0.00 | 74 | 1011.4 |
| 20260505122602 | 12 | 279 | 20.9 | 30.6 | 0.00 | 0.00 | 0.00 | 77 | 1011.4 |
| 20260505122354 | 12 | 281 | 17.7 | 30.6 | 0.00 | 0.00 | 0.00 | 75 | 1011.4 |
| 20260505121602 | 13 | 270 | 16.1 | 25.7 | 0.00 | 0.00 | 0.00 | 76 | 1011.4 |
| 20260505121102 | 13 | 288 | 16.1 | 29.0 | 0.00 | 0.00 | 0.00 | 73 | 1011.4 |
| 20260505120836 | 13 | 286 | 17.7 | 29.0 | 0.00 | 0.00 | 0.00 | 75 | 1011.4 |
| 20260505115602 | 13 | 281 | 17.7 | 25.7 | 0.00 | 0.00 | 0.00 | 74 | 1011.4 |
| 20260505115053 | 13 | 286 | 16.1 | 24.1 | 0.00 | 0.00 | 0.00 | 74 | 1011.4 |
| 20260505114549 | 13 | 298 | 14.5 | 24.1 | 0.00 | 0.00 | 0.00 | 75 | 1011.4 |
| 20260505114050 | 12 | 282 | 14.5 | 20.9 | 0.00 | 0.00 | 0.00 | 75 | 1011.4 |
| 20260505113046 | 12 | 277 | 14.5 | 24.1 | 0.00 | 0.00 | 0.00 | 72 | 1011.4 |
| 20260505112547 | 13 | 332 | 14.5 | 24.1 | 0.00 | 0.00 | 0.00 | 69 | 1011.5 |
| 20260505112046 | 13 | 298 | 12.9 | 24.1 | 0.00 | 0.00 | 0.00 | 71 | 1011.5 |
| 20260505111545 | 13 | 313 | 11.3 | 20.9 | 0.00 | 0.00 | 0.00 | 69 | 1011.5 |
| 20260505111323 | 13 | 293 | 12.9 | 20.9 | 0.00 | 0.00 | 0.00 | 68 | 1011.5 |
| 20260505110545 | 13 | 309 | 11.3 | 22.5 | 0.00 | 0.00 | 0.00 | 71 | 1011.5 |
| 20260505101550 | 12 | 330 | 4.8 | 9.7 | 0.00 | 0.00 | 0.00 | 71 | 1011.9 |
| 20260505101312 | 12 | 9 | 6.4 | 11.3 | 0.00 | 0.00 | 0.00 | 68 | 1012.0 |
| 20260505100546 | 12 | 5 | 6.4 | 14.5 | 0.00 | 0.00 | 0.00 | 69 | 1012.0 |
| 20260505100343 | 11 | 18 | 8.0 | 14.5 | 0.00 | 0.00 | 0.00 | 68 | 1012.0 |
| 20260505095041 | 12 | 329 | 8.0 | 16.1 | 0.00 | 0.00 | 0.00 | 71 | 1012.0 |
| 20260505094535 | 12 | 0 | 6.4 | 16.1 | 0.00 | 0.00 | 0.00 | 70 | 1012.0 |
| 20260505094048 | 12 | 355 | 6.4 | 14.5 | 0.00 | 0.00 | 0.00 | 70 | 1012.0 |
| 20260505093538 | 12 | 355 | 8.0 | 16.1 | 0.00 | 0.00 | 0.00 | 71 | 1012.0 |
| 20260505093036 | 12 | 346 | 9.7 | 17.7 | 0.00 | 0.00 | 0.00 | 72 | 1012.0 |
| 20260505092531 | 12 | 350 | 9.7 | 17.7 | 0.00 | 0.00 | 0.00 | 75 | 1012.0 |
| 20260505092258 | 11 | 331 | 8.0 | 16.1 | 0.00 | 0.00 | 0.00 | 77 | 1012.0 |
| 20260505091529 | 11 | 5 | 8.0 | 14.5 | 0.00 | 0.00 | 0.00 | 77 | 1012.0 |
| 20260505091030 | 11 | 316 | 8.0 | 14.5 | 0.00 | 0.00 | 0.00 | 77 | 1012.0 |
| 20260505090524 | 11 | 355 | 9.7 | 16.1 | 0.00 | 0.00 | 0.00 | 77 | 1012.0 |
| 20260505090255 | 11 | 309 | 9.7 | 16.1 | 0.00 | 0.00 | 0.00 | 77 | 1012.0 |
| 20260505085748 | 11 | 338 | 8.0 | 16.1 | 0.00 | 0.00 | 0.00 | 76 | 1012.0 |
| 20260505085021 | 11 | 346 | 9.7 | 16.1 | 0.00 | 0.00 | 0.00 | 75 | 1012.0 |
| 20260505084522 | 11 | 314 | 9.7 | 17.7 | 0.00 | 0.00 | 0.00 | 73 | 1012.0 |
| 20260505084022 | 12 | 300 | 9.7 | 17.7 | 0.00 | 0.00 | 0.00 | 72 | 1012.0 |
| 20260505083524 | 12 | 323 | 8.0 | 16.1 | 0.00 | 0.00 | 0.00 | 72 | 1012.0 |
| 20260505083021 | 12 | 50 | 8.0 | 16.1 | 0.00 | 0.00 | 0.00 | 72 | 1012.0 |
| 20260505082522 | 12 | 43 | 8.0 | 16.1 | 0.00 | 0.00 | 0.00 | 72 | 1012.1 |
| 20260505082022 | 12 | 5 | 8.0 | 17.7 | 0.00 | 0.00 | 0.00 | 72 | 1012.1 |
| 20260505081522 | 12 | 345 | 9.7 | 17.7 | 0.00 | 0.00 | 0.00 | 73 | 1012.1 |
| 20260505081023 | 12 | 331 | 9.7 | 17.7 | 0.00 | 0.00 | 0.00 | 75 | 1012.1 |
| 20260505080522 | 11 | 26 | 9.7 | 17.7 | 0.00 | 0.00 | 0.00 | 75 | 1012.1 |
| 20260505080020 | 11 | 12 | 11.3 | 17.7 | 0.00 | 0.00 | 0.00 | 75 | 1012.1 |
| 20260505075509 | 11 | 355 | 9.7 | 17.7 | 0.00 | 0.00 | 0.00 | 74 | 1012.2 |
| 20260505075010 | 11 | 330 | 6.4 | 14.5 | 0.00 | 0.00 | 0.00 | 75 | 1012.2 |
| 20260505074509 | 11 | 51 | 8.0 | 16.1 | 0.00 | 0.00 | 0.00 | 76 | 1012.2 |
| 20260505074011 | 11 | 39 | 8.0 | 16.1 | 0.00 | 0.00 | 0.00 | 75 | 1012.2 |
| 20260505073510 | 11 | 328 | 8.0 | 16.1 | 0.00 | 0.00 | 0.00 | 76 | 1012.2 |
| 20260505073010 | 11 | 347 | 11.3 | 17.7 | 0.00 | 0.00 | 0.00 | 75 | 1012.2 |
| 20260505072510 | 11 | 336 | 11.3 | 17.7 | 0.00 | 0.00 | 0.00 | 75 | 1012.3 |
| 20260505071510 | 11 | 351 | 11.3 | 19.3 | 0.00 | 0.00 | 0.00 | 76 | 1012.3 |
| 20260505071010 | 11 | 333 | 9.7 | 19.3 | 0.00 | 0.00 | 0.00 | 76 | 1012.4 |
| 20260505070508 | 10 | 9 | 11.3 | 19.3 | 0.00 | 0.00 | 0.00 | 76 | 1012.4 |
| 20260505070012 | 10 | 346 | 11.3 | 19.3 | 0.00 | 0.00 | 0.00 | 77 | 1012.4 |
| 20260505065509 | 10 | 348 | 8.0 | 17.7 | 0.00 | 0.00 | 0.00 | 78 | 1012.4 |
| 20260505065011 | 10 | 0 | 8.0 | 14.5 | 0.00 | 0.00 | 0.00 | 79 | 1012.4 |
| 20260505064508 | 10 | 0 | 6.4 | 11.3 | 0.00 | 0.00 | 0.00 | 81 | 1012.4 |
| 20260505064009 | 10 | 15 | 8.0 | 12.9 | 0.00 | 0.00 | 0.00 | 80 | 1012.4 |
| 20260505063507 | 10 | 0 | 8.0 | 12.9 | 0.00 | 0.00 | 0.00 | 81 | 1012.4 |
| 20260505063011 | 10 | 0 | 8.0 | 12.9 | 0.00 | 0.00 | 0.00 | 81 | 1012.4 |
| 20260505062507 | 10 | 5 | 4.8 | 11.3 | 0.00 | 0.00 | 0.00 | 83 | 1012.4 |
| 20260505062009 | 9 | 30 | 4.8 | 9.7 | 0.00 | 0.00 | 0.00 | 84 | 1012.4 |
| 20260505061508 | 9 | 355 | 6.4 | 9.7 | 0.00 | 0.00 | 0.00 | 85 | 1012.4 |
| 20260505061013 | 9 | 17 | 6.4 | 9.7 | 0.00 | 0.00 | 0.00 | 85 | 1012.3 |
| 20260505060506 | 8 | 16 | 4.8 | 8.0 | 0.00 | 0.00 | 0.00 | 86 | 1012.3 |
| 20260505060013 | 8 | 30 | 4.8 | 8.0 | 0.00 | 0.00 | 0.00 | 86 | 1012.3 |
| 20260505055502 | 8 | 30 | 3.2 | 8.0 | 0.00 | 0.00 | 0.00 | 87 | 1012.2 |
| 20260505055001 | 8 | 30 | 3.2 | 6.4 | 0.00 | 0.00 | 0.00 | 88 | 1012.2 |
| 20260505054727 | 8 | 30 | 4.8 | 8.0 | 0.00 | 0.00 | 0.00 | 89 | 1012.2 |
| 20260505054001 | 7 | 30 | 6.4 | 9.7 | 0.00 | 0.00 | 0.00 | 89 | 1012.2 |
| 20260505053503 | 7 | 30 | 6.4 | 9.7 | 0.00 | 0.00 | 0.00 | 90 | 1012.2 |
| 20260505053002 | 7 | 30 | 6.4 | 9.7 | 0.00 | 0.00 | 0.00 | 91 | 1012.2 |
| 20260505052732 | 7 | 40 | 6.4 | 9.7 | 0.00 | 0.00 | 0.00 | 92 | 1012.0 |
| 20260505052009 | 6 | 40 | 4.8 | 8.0 | 0.00 | 0.00 | 0.00 | 93 | 1012.0 |
| 20260505051455 | 6 | 21 | 3.2 | 8.0 | 0.00 | 0.00 | 0.00 | 93 | 1012.0 |
| 20260505050955 | 6 | 16 | 3.2 | 6.4 | 0.00 | 0.00 | 0.00 | 93 | 1012.0 |
| 20260505050719 | 5 | 355 | 3.2 | 4.8 | 0.00 | 0.00 | 0.00 | 93 | 1012.0 |
| 20260505041447 | 3 | 355 | 3.2 | 4.8 | 0.00 | 0.00 | 0.00 | 93 | 1012.0 |
| 20260505040947 | 3 | 355 | 3.2 | 4.8 | 0.00 | 0.00 | 0.00 | 93 | 1012.0 |
| 20260505040444 | 3 | 355 | 3.2 | 4.8 | 0.00 | 0.00 | 0.00 | 93 | 1012.0 |
| 20260505035942 | 3 | 355 | 3.2 | 6.4 | 0.00 | 0.00 | 0.00 | 93 | 1012.0 |
| 20260505035442 | 3 | 355 | 4.8 | 6.4 | 0.00 | 0.00 | 0.00 | 93 | 1012.0 |
| 20260505034938 | 3 | 355 | 4.8 | 6.4 | 0.00 | 0.00 | 0.00 | 93 | 1012.0 |
| 20260505034712 | 3 | 355 | 4.8 | 6.4 | 0.00 | 0.00 | 0.00 | 93 | 1012.0 |
| 20260505033934 | 3 | 355 | 4.8 | 6.4 | 0.00 | 0.00 | 0.00 | 93 | 1012.0 |
| 20260505033434 | 3 | 355 | 3.2 | 6.4 | 0.00 | 0.00 | 0.00 | 93 | 1012.0 |
| 20260505033209 | 3 | 355 | 3.2 | 4.8 | 0.00 | 0.00 | 0.00 | 92 | 1012.0 |
| 20260505032432 | 3 | 355 | 3.2 | 4.8 | 0.00 | 0.00 | 0.00 | 92 | 1012.0 |
| 20260505031930 | 3 | 355 | 4.8 | 6.4 | 0.00 | 0.00 | 0.00 | 92 | 1012.0 |
| 20260505031431 | 3 | 355 | 4.8 | 6.4 | 0.00 | 0.00 | 0.00 | 92 | 1012.0 |
| 20260505031203 | 3 | 355 | 4.8 | 8.0 | 0.00 | 0.00 | 0.00 | 92 | 1012.0 |
| 20260505030656 | 4 | 355 | 6.4 | 8.0 | 0.00 | 0.00 | 0.00 | 92 | 1012.0 |
| 20260505025925 | 4 | 355 | 6.4 | 8.0 | 0.00 | 0.00 | 0.00 | 92 | 1012.3 |
| 20260505025414 | 4 | 355 | 4.8 | 6.4 | 0.00 | 0.00 | 0.00 | 92 | 1012.3 |
| 20260505024915 | 4 | 355 | 4.8 | 6.4 | 0.00 | 0.00 | 0.00 | 92 | 1012.3 |
| 20260505024417 | 4 | 355 | 3.2 | 6.4 | 0.00 | 0.00 | 0.00 | 92 | 1012.3 |
| 20260505023915 | 4 | 355 | 4.8 | 6.4 | 0.00 | 0.00 | 0.00 | 92 | 1012.3 |
| 20260505023415 | 4 | 355 | 4.8 | 6.4 | 0.00 | 0.00 | 0.00 | 92 | 1012.3 |
| 20260505022913 | 4 | 355 | 4.8 | 6.4 | 0.00 | 0.00 | 0.00 | 92 | 1012.4 |
| 20260505022410 | 4 | 355 | 4.8 | 6.4 | 0.00 | 0.00 | 0.00 | 92 | 1012.4 |
| 20260505022153 | 4 | 355 | 4.8 | 8.0 | 0.00 | 0.00 | 0.00 | 92 | 1012.4 |
| 20260505021410 | 4 | 355 | 6.4 | 8.0 | 0.00 | 0.00 | 0.00 | 92 | 1012.5 |
| 20260505020904 | 4 | 355 | 4.8 | 8.0 | 0.00 | 0.00 | 0.00 | 92 | 1012.5 |
| 20260505020405 | 4 | 317 | 4.8 | 6.4 | 0.00 | 0.00 | 0.00 | 92 | 1012.5 |
| 20260505015901 | 4 | 317 | 4.8 | 8.0 | 0.00 | 0.00 | 0.00 | 92 | 1012.5 |
| 20260505015401 | 4 | 317 | 4.8 | 8.0 | 0.00 | 0.00 | 0.00 | 92 | 1012.5 |
| 20260505014902 | 5 | 317 | 4.8 | 6.4 | 0.00 | 0.00 | 0.00 | 91 | 1012.5 |
| 20260505014403 | 5 | 317 | 4.8 | 6.4 | 0.00 | 0.00 | 0.00 | 92 | 1012.5 |
| 20260505013902 | 5 | 317 | 3.2 | 6.4 | 0.00 | 0.00 | 0.00 | 92 | 1012.5 |
| 20260505013402 | 5 | 317 | 3.2 | 4.8 | 0.00 | 0.00 | 0.00 | 92 | 1012.5 |
| 20260505012902 | 5 | 317 | 3.2 | 4.8 | 0.00 | 0.00 | 0.00 | 92 | 1012.6 |
| 20260505012416 | 5 | 317 | 3.2 | 4.8 | 0.00 | 0.00 | 0.00 | 92 | 1012.6 |
| 20260505011402 | 5 | 317 | 3.2 | 4.8 | 0.00 | 0.00 | 0.00 | 91 | 1012.8 |
| 20260505010902 | 5 | 317 | 1.6 | 3.2 | 0.00 | 0.00 | 0.00 | 91 | 1012.8 |
| 20260505010401 | 5 | 317 | 1.6 | 4.8 | 0.00 | 0.00 | 0.00 | 91 | 1012.8 |
| 20260505005901 | 5 | 317 | 3.2 | 4.8 | 0.00 | 0.00 | 0.00 | 91 | 1012.9 |
| 20260505005400 | 4 | 317 | 3.2 | 3.2 | 0.00 | 0.00 | 0.00 | 91 | 1012.9 |
| 20260505004900 | 4 | 317 | 3.2 | 4.8 | 0.00 | 0.00 | 0.00 | 91 | 1012.9 |
| 20260505004400 | 4 | 317 | 3.2 | 4.8 | 0.00 | 0.00 | 0.00 | 91 | 1013.0 |
| 20260505003900 | 4 | 317 | 3.2 | 4.8 | 0.00 | 0.00 | 0.00 | 91 | 1013.0 |
| 20260505003400 | 4 | 317 | 3.2 | 4.8 | 0.00 | 0.00 | 0.00 | 91 | 1013.0 |
| 20260505002900 | 4 | 317 | 3.2 | 4.8 | 0.00 | 0.00 | 0.00 | 91 | 1013.0 |
| 20260505002400 | 4 | 317 | 3.2 | 4.8 | 0.00 | 0.00 | 0.00 | 91 | 1013.0 |
| 20260505001901 | 4 | 317 | 3.2 | 4.8 | 0.00 | 0.00 | 0.00 | 91 | 1013.0 |
| 20260505001638 | 4 | 317 | 3.2 | 4.8 | 0.00 | 0.00 | 0.00 | 91 | 1013.0 |
| 20260505000902 | 4 | 317 | 1.6 | 3.2 | 0.00 | 0.00 | 0.00 | 90 | 1013.0 |
| 20260505000400 | 4 | 317 | 1.6 | 3.2 | 0.00 | 0.00 | 0.00 | 90 | 1013.0 |
| 20260505000153 | 4 | 317 | 3.2 | 4.8 | 0.00 | 0.00 | 0.00 | 90 | 1013.0 |
| 20260504235400 | 4 | 317 | 3.2 | 4.8 | 0.00 | 0.00 | 0.00 | 90 | 1013.0 |
| 20260504234900 | 4 | 317 | 1.6 | 4.8 | 0.00 | 0.00 | 0.00 | 90 | 1013.0 |
| 20260504234632 | 4 | 317 | 1.6 | 3.2 | 0.00 | 0.00 | 0.00 | 90 | 1013.1 |
| 20260504233901 | -17 | 317 | 1.6 | 4.8 | 0.00 | 0.00 | 0.00 | 1013.1 | |
| 20260504233400 | -17 | 317 | 1.6 | 4.8 | 0.00 | 0.00 | 0.00 | 1013.1 | |
| 20260504232854 | -17 | 317 | 0.0 | 1.6 | 0.00 | 0.00 | 0.00 | 1013.3 | |
| 20260504232347 | -17 | 317 | 0.0 | 1.6 | 0.00 | 0.00 | 0.00 | 1013.3 | |
| 20260504231842 | -17 | 317 | 0.0 | 1.6 | 0.00 | 0.00 | 0.00 | 1013.3 | |
| 20260504231341 | -17 | 317 | 0.0 | 1.6 | 0.00 | 0.00 | 0.00 | 1013.2 | |
| 20260504231119 | -17 | 317 | 1.6 | 3.2 | 0.00 | 0.00 | 0.00 | 1013.2 | |
| 20260504230336 | -17 | 317 | 1.6 | 3.2 | 0.00 | 0.00 | 0.00 | 1013.2 | |
| 20260504225836 | -17 | 317 | 0.0 | 3.2 | 0.00 | 0.00 | 0.00 | 1013.3 | |
| 20260504225337 | -17 | 317 | 1.6 | 3.2 | 0.00 | 0.00 | 0.00 | 1013.3 | |
| 20260504224834 | -17 | 317 | 1.6 | 3.2 | 0.00 | 0.00 | 0.00 | 1013.3 | |
| 20260504224335 | -17 | 317 | 1.6 | 3.2 | 0.00 | 0.00 | 0.00 | 1013.2 | |
| 20260504223832 | -17 | 317 | 1.6 | 3.2 | 0.00 | 0.00 | 0.00 | 1013.2 | |
| 20260504223330 | -17 | 317 | 1.6 | 3.2 | 0.00 | 0.00 | 0.00 | 1013.2 | |
| 20260504222829 | -17 | 317 | 1.6 | 3.2 | 0.00 | 0.00 | 0.00 | 1013.2 | |
| 20260504222329 | -17 | 317 | 1.6 | 3.2 | 0.00 | 0.00 | 0.00 | 1013.2 | |
| 20260504221830 | -17 | 317 | 1.6 | 3.2 | 0.00 | 0.00 | 0.00 | 1013.2 | |
| 20260504221330 | -17 | 317 | 1.6 | 3.2 | 0.00 | 0.00 | 0.00 | 1013.1 | |
| 20260504220829 | -17 | 317 | 0.0 | 3.2 | 0.00 | 0.00 | 0.00 | 1013.1 | |
| 20260504220337 | -17 | 317 | 1.6 | 6.4 | 0.00 | 0.00 | 0.00 | 1013.1 | |
| 20260504215330 | -17 | 317 | 4.8 | 8.0 | 0.00 | 0.00 | 0.00 | 1013.1 | |
| 20260504214829 | -17 | 317 | 4.8 | 8.0 | 0.00 | 0.00 | 0.00 | 1013.1 | |
| 20260504214331 | -17 | 317 | 4.8 | 8.0 | 0.00 | 0.00 | 0.00 | 1013.2 | |
| 20260504213830 | -17 | 316 | 4.8 | 8.0 | 0.00 | 0.00 | 0.00 | 1013.2 | |
| 20260504213603 | 6 | 316 | 4.8 | 6.4 | 0.00 | 0.00 | 0.00 | 87 | 1013.2 |
| 20260504212830 | 6 | 316 | 4.8 | 8.0 | 0.00 | 0.00 | 0.00 | 87 | 1013.4 |
| 20260504212331 | 6 | 316 | 4.8 | 8.0 | 0.00 | 0.00 | 0.00 | 87 | 1013.4 |
| 20260504211829 | 6 | 316 | 4.8 | 8.0 | 0.00 | 0.00 | 0.00 | 87 | 1013.4 |
| 20260504211329 | 6 | 316 | 4.8 | 8.0 | 0.00 | 0.00 | 0.00 | 87 | 1013.4 |
| 20260504210830 | 6 | 316 | 4.8 | 8.0 | 0.00 | 0.00 | 0.00 | 87 | 1013.4 |
| 20260504210330 | 6 | 327 | 6.4 | 11.3 | 0.00 | 0.00 | 0.00 | 87 | 1013.4 |
| 20260504210140 | 6 | 324 | 6.4 | 11.3 | 0.00 | 0.00 | 0.00 | 87 | 1013.5 |